OPS 5798 DEB, 903

Orbit data source: Space-Track

OPS 5798 DEB, 903 is space debris in LEO originally from a launch on Tue, 06 Oct 1964 UTC launched from the Air Force Western Test Range (AFWTR). Debris objects in space refer to the collection of defunct objects orbiting the Earth. Examples of debris include non-operational satellites, rocket bodies, and fragments generated from explosions, collisions, or faulty payload assembly.

Loading next visibility...
Identifier
903, 1964-063F
Orbit
LEO
Country
Flag of USUS
Related business
Manufacturer
Unknown
Mission
Spacecraft
Bus & Motor
Unknown
Mass
Unknown
Launch date (UTC)
1964-10-06 (61 years ago)
Launch vehicle
Unknown
Launch site
Air Force Western Test Range (AFWTR)
Object type
Payload
Rocket body
Debris
Shape & HBR
Unknown
Radar Cross Section
Small (<0.1 m²)

Expand to show TLE details & history
Last TLE update: 9 hours ago

TLE from 9 hours ago
0 OPS 5798 DEB
1 00903U 64063F   25258.25339752  .00000919  00000-0  87170-3 0  9994
2 00903  90.2163  64.6330 0021536 220.9421 318.1991 13.80210051 36433
Epoch: 2025-09-15T06:04Z
TLE epoch observation values (Epoch: 2025-09-15T06:04:53.545Z)
Latitude
0.9123°
Longitude
158.95262°
Altitude
954.252 km
Speed
7.381 km/s
True Right ascension
16h 18m 32s
True Declination
0° 54' 25"
Sunlit
Object was in daylight at epoch
Visualization orbit readout
Latitude
Unknown
Longitude
Unknown
Altitude
Unknown
Speed
Unknown
Apparent Right ascension
Unknown
Apparent Declination
Unknown
Sunlit
N/A
Visualization observer readout
Local Sidereal Time
07:40:18
Azimuth
Unknown
Elevation
Unknown
Doppler factor
Unknown
Orbital elements
Apogee altitude
975.951 km
Perigee altitude
944.344 km
Semi-major axis
7,338.285 km
Eccentricity
0.00215
Inclination
90.2163°
RAAN
64.633°
Arg. of periapsis
220.9421°
True anomaly
318.03428°
Mean anomaly
318.1991°
Eccentric anomaly
318.11672°
Mean motion
3.45264 °/min
Orbital period
104.27 mins
BSTAR
0.0008717
Loading maneuver chart data...
Computing Atmospheric mass density...
Loading historical data...
Loading historical data...
Loading historical data...
Loading historical data...
Loading historical data...
Loading historical data...
Loading historical data...

Documentation

Showing up to 5 results
|